This demonstration page uses our WeatherBlox Daily Observations layout. Learn more.

Left ArrowRight Arrow

39.51506, -84.39828

Hourly Observations for March 11, 2017

Temp ( °F °C ) Dew Point ( °F °C ) Humidity (%) Winds ( mph kmh ) Pressure ( in mb ) Visibility ( mi km ) Precip ( " mm )
12:15 am 00:15 Clear 27 -2.8 2 -16.6 34 34 NNW 12 19 30.42 1030 10 16 0.00 0.00
12:35 am 00:35 Clear 27 -2.8 1 -17.3 32 32 N 12 19 30.42 1030 10 16 0.00 0.00
12:55 am 00:55 Clear 27 -2.8 2 -16.8 33 33 N 10 17 30.42 1030 10 16 0.00 0.00
1:15 am 01:15 Clear 24 -4.2 3 -16.1 39 39 NNW 8 13 30.45 1031 10 16 0.00 0.00
1:35 am 01:35 Clear 24 -4.2 5 -15.2 42 42 N 6 9 30.45 1031 10 16 0.00 0.00
1:55 am 01:55 Clear 24 -4.2 1 -17.4 35 35 NNW 12 19 30.48 1032 10 16 0.00 0.00
2:15 am 02:15 Clear 24 -4.2 1 -17.5 35 35 NNW 9 15 30.48 1032 10 16 0.00 0.00
2:35 am 02:35 Clear 24 -4.2 2 -16.6 38 38 N 10 17 30.48 1032 10 16 0.00 0.00
2:55 am 02:55 Clear 23 -4.9 3 -16.2 41 41 N 10 17 30.48 1032 10 16 0.00 0.00
3:10 am 03:10 Clear 23 -5 3 -16 42 42 N 9 15 30.48 1032 10 16 0.00 0.00
3:35 am 03:35 Clear 24 -4.7 3 -16 41 41 N 9 15 30.48 1032 10 16 0.00 0.00
4:15 am 04:15 Clear 23 -4.8 2 -16.8 39 39 N 6 9 30.48 1032 10 16 0.00 0.00
4:35 am 04:35 Clear 24 -4.7 2 -16.9 38 38 N 7 11 30.48 1032 10 16 0.00 0.00
4:55 am 04:55 Clear 23 -5 2 -16.9 39 39 N 5 7 30.48 1032 10 16 0.00 0.00
5:15 am 05:15 Clear 23 -4.8 2 -16.8 39 39 NNW 5 7 30.50 1033 10 16 0.00 0.00
5:35 am 05:35 Clear 23 -4.9 2 -16.5 40 40 N 3 6 30.50 1033 10 16 0.00 0.00
5:55 am 05:55 Clear 24 -4.7 2 -16.7 39 39 N 5 7 30.50 1033 10 16 0.00 0.00
6:15 am 06:15 Clear 23 -5 2 -16.6 40 40 N 3 6 30.50 1033 10 16 0.00 0.00
6:35 am 06:35 Clear 23 -5 3 -16 42 42 N 5 7 30.50 1033 10 16 0.00 0.00
6:55 am 06:55 Sunny 23 -5.1 4 -15.6 44 44 Calm 30.50 1033 10 16 0.00 0.00
7:15 am 07:15 Sunny 22 -5.3 5 -15.1 46 46 Calm 30.50 1033 10 16 0.00 0.00
7:35 am 07:35 Sunny 23 -5 4 -15.4 44 44 N 3 6 30.50 1033 10 16 0.00 0.00
7:55 am 07:55 Sunny 24 -4.2 3 -16 40 40 Calm 30.50 1033 10 16 0.00 0.00
8:15 am 08:15 Sunny 26 -3.6 4 -15.7 39 39 Calm 30.53 1034 10 16 0.00 0.00
8:35 am 08:35 Sunny 26 -3.1 4 -15.7 38 38 NNE 3 6 30.48 1032 10 16 0.00 0.00
8:55 am 08:55 Sunny 27 -2.8 4 -15.7 37 37 Calm 30.48 1032 10 16 0.00 0.00
9:15 am 09:15 Sunny 28 -2.4 3 -15.9 35 35 NNW 8 13 30.50 1033 10 16 0.00 0.00
9:35 am 09:35 Sunny 29 -1.5 5 -15.2 35 35 N 3 6 30.50 1033 10 16 0.00 0.00
9:55 am 09:55 Sunny 29 -1.5 4 -15.5 34 34 NNE 6 9 30.50 1033 10 16 0.00 0.00
10:15 am 10:15 Sunny 29 -1.5 3 -15.9 33 33 W 5 7 30.50 1033 10 16 0.00 0.00
10:35 am 10:35 Partly Cloudy 29 -1.5 3 -16.1 32 32 WSW 3 6 30.50 1033 10 16 0.00 0.00
10:55 am 10:55 Partly Cloudy 30 -1.3 3 -15.9 32 32 NNE 6 9 30.50 1033 10 16 0.00 0.00
11:15 am 11:15 Partly Cloudy 32 0 4 -15.7 30 30 NNE 5 7 30.48 1032 10 16 0.00 0.00
11:35 am 11:35 Sunny 32 0.2 3 -16 29 29 N 7 11 30.48 1032 10 16 0.00 0.00
11:55 am 11:55 Sunny 34 1.2 2 -16.4 26 26 WNW 9 15 30.48 1032 10 16 0.00 0.00
12:15 pm 12:15 Sunny 34 1.2 3 -16 27 27 WNW 8 13 30.48 1032 10 16 0.00 0.00
12:35 pm 12:35 Sunny 34 1.2 2 -16.6 25 25 WNW 3 6 30.48 1032 10 16 0.00 0.00
12:55 pm 12:55 Partly Cloudy 34 1.2 1 -17.2 24 24 NW 10 17 30.48 1032 10 16 0.00 0.00
1:15 pm 13:15 Partly Cloudy 34 1.2 1 -17.4 24 24 W 9 15 30.48 1032 10 16 0.00 0.00
1:35 pm 13:35 Sunny 34 1.3 0 -18 22 22 WNW 6 9 30.45 1031 10 16 0.00 0.00
1:55 pm 13:55 Sunny 34 1.3 -1 -18.1 22 22 Calm 30.45 1031 10 16 0.00 0.00
2:15 pm 14:15 Sunny 35 1.5 1 -17.5 23 23 NW 7 11 30.45 1031 10 16 0.00 0.00
2:35 pm 14:35 Sunny 36 2.3 2 -16.5 24 24 N 8 13 30.45 1031 10 16 0.00 0.00
2:55 pm 14:55 Sunny 36 2.4 1 -17 23 23 NNW 8 13 30.45 1031 10 16 0.00 0.00
3:15 pm 15:15 Sunny 36 2.3 -1 -18.1 21 21 W 6 9 30.45 1031 10 16 0.00 0.00
3:35 pm 15:35 Sunny 35 1.9 0 -17.7 22 22 W 7 11 30.45 1031 10 16 0.00 0.00
3:55 pm 15:55 Sunny 37 2.6 1 -17.5 21 21 W 10 17 30.45 1031 10 16 0.00 0.00
4:15 pm 16:15 Sunny 37 2.6 0 -17.9 21 21 SW 7 11 30.42 1030 10 16 0.00 0.00
4:35 pm 16:35 Sunny 37 2.6 0 -17.9 21 21 W 8 13 30.42 1030 10 16 0.00 0.00
4:55 pm 16:55 Sunny 37 2.6 0 -18 20 20 NW 8 13 30.42 1030 10 16 0.00 0.00
5:15 pm 17:15 Sunny 37 2.6 -1 -18.4 20 20 W 7 11 30.42 1030 10 16 0.00 0.00
5:35 pm 17:35 Sunny 37 2.6 1 -17.5 21 21 NW 6 9 30.42 1030 10 16 0.00 0.00
5:55 pm 17:55 Sunny 34 1.3 1 -17.5 23 23 N 5 7 30.42 1030 10 16 0.00 0.00
6:15 pm 18:15 Sunny 34 1.2 1 -17.2 24 24 NNW 6 9 30.42 1030 10 16 0.00 0.00
6:35 pm 18:35 Sunny 34 1.2 3 -16.2 26 26 NW 6 9 30.42 1030 10 16 0.00 0.00
6:55 pm 18:55 Clear 34 1.2 4 -15.5 28 28 NW 5 7 30.42 1030 10 16 0.00 0.00
7:15 pm 19:15 Clear 34 1.2 6 -14.7 30 30 NW 3 6 30.42 1030 10 16 0.00 0.00
7:35 pm 19:35 Clear 34 1.2 8 -13.3 33 33 NNW 3 6 30.42 1030 10 16 0.00 0.00
7:55 pm 19:55 Clear 32 0 8 -13.4 36 36 NNW 3 6 30.42 1030 10 16 0.00 0.00
8:15 pm 20:15 Clear 32 0 9 -13 37 37 Calm 30.42 1030 10 16 0.00 0.00
8:35 pm 20:35 Clear 31 -0.8 10 -12.3 42 42 NNW 5 7 30.42 1030 10 16 0.00 0.00
8:55 pm 20:55 Clear 29 -1.5 9 -12.7 43 43 NNW 5 7 30.45 1031 10 16 0.00 0.00
9:15 pm 21:15 Clear 29 -1.5 9 -12.6 43 43 NNW 3 6 30.45 1031 10 16 0.00 0.00
9:35 pm 21:35 Clear 29 -1.5 8 -13.1 41 41 NNW 3 6 30.45 1031 10 16 0.00 0.00
9:55 pm 21:55 Clear 29 -1.5 8 -13.2 41 41 NW 3 6 30.45 1031 10 16 0.00 0.00
10:15 pm 22:15 Clear 29 -1.5 10 -12.4 44 44 NNW 3 6 30.45 1031 10 16 0.00 0.00
10:35 pm 22:35 Clear 29 -1.5 12 -11.2 48 48 NNW 3 6 30.45 1031 10 16 0.00 0.00
10:55 pm 22:55 Clear 29 -1.5 13 -10.8 50 50 NNW 3 6 30.45 1031 10 16 0.00 0.00
11:15 pm 23:15 Clear 29 -1.5 11 -11.7 46 46 NNW 7 11 30.45 1031 10 16 0.00 0.00
11:35 pm 23:35 Clear 29 -1.5 10 -12.4 44 44 NNW 8 13 30.45 1031 10 16 0.00 0.00
11:55 pm 23:55 Clear 29 -1.5 9 -12.8 42 42 N 7 11 30.45 1031 10 16 0.00 0.00

Powered by AerisWeather